Year,Month,Day,Hour,Minute,Value (Times are PST for temperature in C)
2006,02,15,00,00,4.20
2006,02,15,00,01,4.10
2006,02,15,00,02,4.10
2006,02,15,00,03,4.10
2006,02,15,00,04,4.10
2006,02,15,00,05,4.10
2006,02,15,00,06,4.10
2006,02,15,00,07,4.10
2006,02,15,00,08,4.10
2006,02,15,00,09,4.20
2006,02,15,00,10,4.20
2006,02,15,00,11,4.20
2006,02,15,00,12,4.20
2006,02,15,00,13,4.20
2006,02,15,00,14,4.20
2006,02,15,00,15,4.20
2006,02,15,00,16,4.20
2006,02,15,00,17,4.20
2006,02,15,00,18,4.20
2006,02,15,00,19,4.20
2006,02,15,00,20,4.20
2006,02,15,00,21,4.20
2006,02,15,00,22,4.20
2006,02,15,00,23,4.20
2006,02,15,00,24,4.20
2006,02,15,00,25,4.20
2006,02,15,00,26,4.20
2006,02,15,00,27,4.20
2006,02,15,00,28,4.20
2006,02,15,00,29,4.20
2006,02,15,00,30,4.20
2006,02,15,00,31,4.20
2006,02,15,00,32,4.20
2006,02,15,00,33,4.20
2006,02,15,00,34,4.20
2006,02,15,00,35,4.20
2006,02,15,00,36,4.30
2006,02,15,00,37,4.30
2006,02,15,00,38,4.30
2006,02,15,00,39,4.30
2006,02,15,00,40,4.30
2006,02,15,00,41,4.30
2006,02,15,00,42,4.30
2006,02,15,00,43,4.30
2006,02,15,00,44,4.20
2006,02,15,00,45,4.20
2006,02,15,00,46,4.20
2006,02,15,00,47,4.20
2006,02,15,00,48,4.20
2006,02,15,00,49,4.20
2006,02,15,00,50,4.20
2006,02,15,00,51,4.20
2006,02,15,00,52,4.20
2006,02,15,00,53,4.20
2006,02,15,00,54,4.20
2006,02,15,00,55,4.20
2006,02,15,00,56,4.20
2006,02,15,00,57,4.20
2006,02,15,00,58,4.20
2006,02,15,00,59,4.20
2006,02,15,01,00,4.20
2006,02,15,01,01,4.20
2006,02,15,01,02,4.20
2006,02,15,01,03,4.20
2006,02,15,01,04,4.20
2006,02,15,01,05,4.20
2006,02,15,01,06,4.20
2006,02,15,01,07,4.20
2006,02,15,01,08,4.20
2006,02,15,01,09,4.20
2006,02,15,01,10,4.10
2006,02,15,01,11,4.10
2006,02,15,01,12,4.20
2006,02,15,01,13,4.20
2006,02,15,01,14,4.20
2006,02,15,01,15,4.20
2006,02,15,01,16,4.20
2006,02,15,01,17,4.20
2006,02,15,01,18,4.20
2006,02,15,01,19,4.20
2006,02,15,01,20,4.20
2006,02,15,01,21,4.20
2006,02,15,01,22,4.20
2006,02,15,01,23,4.20
2006,02,15,01,24,4.20
2006,02,15,01,25,4.20
2006,02,15,01,26,4.20
2006,02,15,01,27,4.20
2006,02,15,01,28,4.20
2006,02,15,01,29,4.20
2006,02,15,01,30,4.20
2006,02,15,01,31,4.20
2006,02,15,01,32,4.20
2006,02,15,01,33,4.20
2006,02,15,01,34,4.20
2006,02,15,01,35,4.20
2006,02,15,01,36,4.20
2006,02,15,01,37,4.20
2006,02,15,01,38,4.20
2006,02,15,01,39,4.20
2006,02,15,01,40,4.20
2006,02,15,01,41,4.20
2006,02,15,01,42,4.20
2006,02,15,01,43,4.30
2006,02,15,01,44,4.30
2006,02,15,01,45,4.30
2006,02,15,01,46,4.30
2006,02,15,01,47,4.30
2006,02,15,01,48,4.30
2006,02,15,01,49,4.30
2006,02,15,01,50,4.20
2006,02,15,01,51,4.20
2006,02,15,01,52,4.20
2006,02,15,01,53,4.20
2006,02,15,01,54,4.20
2006,02,15,01,55,4.20
2006,02,15,01,56,4.20
2006,02,15,01,57,4.20
2006,02,15,01,58,4.20
2006,02,15,01,59,4.20
2006,02,15,02,00,4.20
2006,02,15,02,01,4.20
2006,02,15,02,02,4.20
2006,02,15,02,03,4.20
2006,02,15,02,04,4.20
2006,02,15,02,05,4.20
2006,02,15,02,06,4.20
2006,02,15,02,07,4.20
2006,02,15,02,08,4.10
2006,02,15,02,09,4.10
2006,02,15,02,10,4.20
2006,02,15,02,11,4.20
2006,02,15,02,12,4.20
2006,02,15,02,13,4.10
2006,02,15,02,14,4.10
2006,02,15,02,15,4.10
2006,02,15,02,16,4.10
2006,02,15,02,17,4.10
2006,02,15,02,18,4.10
2006,02,15,02,19,4.10
2006,02,15,02,20,4.10
2006,02,15,02,21,4.20
2006,02,15,02,22,4.20
2006,02,15,02,23,4.10
2006,02,15,02,24,4.10
2006,02,15,02,25,4.10
2006,02,15,02,26,4.10
2006,02,15,02,27,4.10
2006,02,15,02,28,4.10
2006,02,15,02,29,4.10
2006,02,15,02,30,4.10
2006,02,15,02,31,4.10
2006,02,15,02,32,4.10
2006,02,15,02,33,4.10
2006,02,15,02,34,4.10
2006,02,15,02,35,4.10
2006,02,15,02,36,4.10
2006,02,15,02,37,4.10
2006,02,15,02,38,4.00
2006,02,15,02,39,4.00
2006,02,15,02,40,4.00
2006,02,15,02,41,4.00
2006,02,15,02,42,4.10
2006,02,15,02,43,4.10
2006,02,15,02,44,4.10
2006,02,15,02,45,4.10
2006,02,15,02,46,4.10
2006,02,15,02,47,4.10
2006,02,15,02,48,4.10
2006,02,15,02,49,4.10
2006,02,15,02,50,4.20
2006,02,15,02,51,4.20
2006,02,15,02,52,4.20
2006,02,15,02,53,4.20
2006,02,15,02,54,4.20
2006,02,15,02,55,4.20
2006,02,15,02,56,4.20
2006,02,15,02,57,4.20
2006,02,15,02,58,4.20
2006,02,15,02,59,4.20
2006,02,15,03,00,4.20
2006,02,15,03,01,4.20
2006,02,15,03,02,4.20
2006,02,15,03,03,4.20
2006,02,15,03,04,4.20
2006,02,15,03,05,4.10
2006,02,15,03,06,4.10
2006,02,15,03,07,4.10
2006,02,15,03,08,4.20
2006,02,15,03,09,4.20
2006,02,15,03,10,4.10
2006,02,15,03,11,4.10
2006,02,15,03,12,4.00
2006,02,15,03,13,4.00
2006,02,15,03,14,4.00
2006,02,15,03,15,4.00
2006,02,15,03,16,4.00
2006,02,15,03,17,4.00
2006,02,15,03,18,4.00
2006,02,15,03,19,4.00
2006,02,15,03,20,4.10
2006,02,15,03,21,4.10
2006,02,15,03,22,4.10
2006,02,15,03,23,4.20
2006,02,15,03,24,4.20
2006,02,15,03,25,4.20
2006,02,15,03,26,4.20
2006,02,15,03,27,4.20
2006,02,15,03,28,4.20
2006,02,15,03,29,4.20
2006,02,15,03,30,4.10
2006,02,15,03,31,4.10
2006,02,15,03,32,4.10
2006,02,15,03,33,4.10
2006,02,15,03,34,4.10
2006,02,15,03,35,4.10
2006,02,15,03,36,4.10
2006,02,15,03,37,4.10
2006,02,15,03,38,4.10
2006,02,15,03,39,4.10
2006,02,15,03,40,4.10
2006,02,15,03,41,4.10
2006,02,15,03,42,4.00
2006,02,15,03,43,4.00
2006,02,15,03,44,4.00
2006,02,15,03,45,4.10
2006,02,15,03,46,4.10
2006,02,15,03,47,4.10
2006,02,15,03,48,4.10
2006,02,15,03,49,4.10
2006,02,15,03,50,4.20
2006,02,15,03,51,4.20
2006,02,15,03,52,4.20
2006,02,15,03,53,4.20
2006,02,15,03,54,4.20
2006,02,15,03,55,4.20
2006,02,15,03,56,4.20
2006,02,15,03,57,4.20
2006,02,15,03,58,4.20
2006,02,15,03,59,4.20
2006,02,15,04,00,4.20
2006,02,15,04,01,4.20
2006,02,15,04,02,4.20
2006,02,15,04,03,4.20
2006,02,15,04,04,4.20
2006,02,15,04,05,4.20
2006,02,15,04,06,4.20
2006,02,15,04,07,4.20
2006,02,15,04,08,4.20
2006,02,15,04,09,4.30
2006,02,15,04,10,4.30
2006,02,15,04,11,4.20
2006,02,15,04,12,4.20
2006,02,15,04,13,4.20
2006,02,15,04,14,4.20
2006,02,15,04,15,4.20
2006,02,15,04,16,4.20
2006,02,15,04,17,4.20
2006,02,15,04,18,4.20
2006,02,15,04,19,4.20
2006,02,15,04,20,4.20
2006,02,15,04,21,4.20
2006,02,15,04,22,4.20
2006,02,15,04,23,4.20
2006,02,15,04,24,4.20
2006,02,15,04,25,4.20
2006,02,15,04,26,4.20
2006,02,15,04,27,4.20
2006,02,15,04,28,4.20
2006,02,15,04,29,4.10
2006,02,15,04,30,4.20
2006,02,15,04,31,4.20
2006,02,15,04,32,4.20
2006,02,15,04,33,4.20
2006,02,15,04,34,4.20
2006,02,15,04,35,4.20
2006,02,15,04,36,4.20
2006,02,15,04,37,4.20
2006,02,15,04,38,4.20
2006,02,15,04,39,4.20
2006,02,15,04,40,4.20
2006,02,15,04,41,4.20
2006,02,15,04,42,4.10
2006,02,15,04,43,4.10
2006,02,15,04,44,4.10
2006,02,15,04,45,4.00
2006,02,15,04,46,4.00
2006,02,15,04,47,3.90
2006,02,15,04,48,3.80
2006,02,15,04,49,3.60
2006,02,15,04,50,3.50
2006,02,15,04,51,3.40
2006,02,15,04,52,3.30
2006,02,15,04,53,3.20
2006,02,15,04,54,3.10
2006,02,15,04,55,3.10
2006,02,15,04,56,3.10
2006,02,15,04,57,2.90
2006,02,15,04,58,2.90
2006,02,15,04,59,2.90
2006,02,15,05,00,2.90
2006,02,15,05,01,2.90
2006,02,15,05,02,2.80
2006,02,15,05,03,2.80
2006,02,15,05,04,2.80
2006,02,15,05,05,2.80
2006,02,15,05,06,2.80
2006,02,15,05,07,2.70
2006,02,15,05,08,2.70
2006,02,15,05,09,2.70
2006,02,15,05,10,2.70
2006,02,15,05,11,2.80
2006,02,15,05,12,2.80
2006,02,15,05,13,2.80
2006,02,15,05,14,2.80
2006,02,15,05,15,2.80
2006,02,15,05,16,2.80
2006,02,15,05,17,2.80
2006,02,15,05,18,2.80
2006,02,15,05,19,2.80
2006,02,15,05,20,2.70
2006,02,15,05,21,2.80
2006,02,15,05,22,2.80
2006,02,15,05,23,2.80
2006,02,15,05,24,2.80
2006,02,15,05,25,2.80
2006,02,15,05,26,2.80
2006,02,15,05,27,2.80
2006,02,15,05,28,2.80
2006,02,15,05,29,2.70
2006,02,15,05,30,2.70
2006,02,15,05,31,2.60
2006,02,15,05,32,2.50
2006,02,15,05,33,2.50
2006,02,15,05,34,2.30
2006,02,15,05,35,2.20
2006,02,15,05,36,2.10
2006,02,15,05,37,2.10
2006,02,15,05,38,1.90
2006,02,15,05,39,1.80
2006,02,15,05,40,1.80
2006,02,15,05,41,1.80
2006,02,15,05,42,1.80
2006,02,15,05,43,1.80
2006,02,15,05,44,1.80
2006,02,15,05,45,2.00
2006,02,15,05,46,2.10
2006,02,15,05,47,2.20
2006,02,15,05,48,2.30
2006,02,15,05,49,2.40
2006,02,15,05,50,2.50
2006,02,15,05,51,2.60
2006,02,15,05,52,2.60
2006,02,15,05,53,2.70
2006,02,15,05,54,2.70
2006,02,15,05,55,2.70
2006,02,15,05,56,2.70
2006,02,15,05,57,2.70
2006,02,15,05,58,2.70
2006,02,15,05,59,2.70
2006,02,15,06,00,2.70
2006,02,15,06,01,2.70
2006,02,15,06,02,2.70
2006,02,15,06,03,2.70
2006,02,15,06,04,2.70
2006,02,15,06,05,2.80
2006,02,15,06,06,2.80
2006,02,15,06,07,2.80
2006,02,15,06,08,2.80
2006,02,15,06,09,2.70
2006,02,15,06,10,2.80
2006,02,15,06,11,2.80
2006,02,15,06,12,2.80
2006,02,15,06,13,2.80
2006,02,15,06,14,2.80
2006,02,15,06,15,2.80
2006,02,15,06,16,2.80
2006,02,15,06,17,2.80
2006,02,15,06,18,2.80
2006,02,15,06,19,2.80
2006,02,15,06,20,2.80
2006,02,15,06,21,2.70
2006,02,15,06,22,2.70
2006,02,15,06,23,2.70
2006,02,15,06,24,2.70
2006,02,15,06,25,2.70
2006,02,15,06,26,2.70
2006,02,15,06,27,2.70
2006,02,15,06,28,2.70
2006,02,15,06,29,2.70
2006,02,15,06,30,2.70
2006,02,15,06,31,2.70
2006,02,15,06,32,2.70
2006,02,15,06,33,2.70
2006,02,15,06,34,2.70
2006,02,15,06,35,2.70
2006,02,15,06,36,2.70
2006,02,15,06,37,2.70
2006,02,15,06,38,2.70
2006,02,15,06,39,2.70
2006,02,15,06,40,2.70
2006,02,15,06,41,2.70
2006,02,15,06,42,2.70
2006,02,15,08,22,3.50
2006,02,15,08,23,3.40
2006,02,15,08,24,3.40
2006,02,15,08,25,3.40
2006,02,15,08,26,3.40
2006,02,15,08,27,3.40
2006,02,15,08,28,3.40
2006,02,15,08,29,3.40
2006,02,15,08,30,3.40
2006,02,15,08,31,3.40
2006,02,15,08,32,3.40
2006,02,15,08,33,3.40
2006,02,15,08,34,3.40
2006,02,15,08,35,3.40
2006,02,15,08,36,3.40
2006,02,15,08,37,3.40
2006,02,15,08,38,3.40
2006,02,15,08,39,3.40
2006,02,15,08,40,3.30
2006,02,15,08,41,3.30
2006,02,15,08,42,3.30
2006,02,15,08,43,3.30
2006,02,15,08,44,3.30
2006,02,15,08,45,3.20
2006,02,15,08,46,3.10
2006,02,15,08,47,3.00
2006,02,15,08,48,2.80
2006,02,15,08,49,2.70
2006,02,15,08,50,2.60
2006,02,15,08,51,2.50
2006,02,15,08,52,2.40
2006,02,15,08,53,2.30
2006,02,15,08,54,2.20
2006,02,15,08,55,2.20
2006,02,15,08,56,2.20
2006,02,15,08,57,2.20
2006,02,15,08,58,2.20
2006,02,15,08,59,2.20
2006,02,15,09,00,2.20
2006,02,15,09,01,2.20
2006,02,15,09,02,2.30
2006,02,15,09,03,2.40
2006,02,15,09,04,2.50
2006,02,15,09,05,2.60
2006,02,15,09,06,2.70
2006,02,15,09,07,2.70
2006,02,15,09,08,2.70
2006,02,15,09,09,2.80
2006,02,15,09,10,2.80
2006,02,15,09,11,2.90
2006,02,15,09,12,2.90
2006,02,15,09,13,2.90
2006,02,15,09,14,3.00
2006,02,15,09,15,3.10
2006,02,15,09,16,3.10
2006,02,15,09,17,3.10
2006,02,15,09,18,3.10
2006,02,15,09,19,3.20
2006,02,15,09,20,3.20
2006,02,15,09,21,3.30
2006,02,15,09,22,3.30
2006,02,15,09,23,3.30
2006,02,15,09,24,3.30
2006,02,15,09,25,3.30
2006,02,15,09,26,3.30
2006,02,15,09,27,3.40
2006,02,15,09,28,3.40
2006,02,15,09,29,3.50
2006,02,15,09,30,3.50
2006,02,15,09,31,3.60
2006,02,15,09,32,3.60
2006,02,15,09,33,3.60
2006,02,15,09,34,3.70
2006,02,15,09,35,3.80
2006,02,15,09,36,3.80
2006,02,15,09,37,3.80
2006,02,15,09,38,3.90
2006,02,15,09,39,3.90
2006,02,15,09,40,4.00
2006,02,15,09,41,4.00
2006,02,15,09,42,4.00
2006,02,15,09,43,4.10
2006,02,15,09,44,4.10
2006,02,15,09,45,4.10
2006,02,15,09,46,4.10
2006,02,15,09,47,4.20
2006,02,15,09,48,4.20
2006,02,15,09,49,4.20
2006,02,15,09,50,4.20
2006,02,15,09,51,4.20
2006,02,15,09,52,4.20
2006,02,15,09,53,4.20
2006,02,15,09,54,4.20
2006,02,15,09,55,4.30
2006,02,15,09,56,4.30
2006,02,15,09,57,4.30
2006,02,15,09,58,4.40
2006,02,15,09,59,4.40
2006,02,15,10,00,4.50
2006,02,15,10,01,4.50
2006,02,15,10,02,4.50
2006,02,15,10,03,4.50
2006,02,15,10,04,4.50
2006,02,15,10,05,4.60
2006,02,15,10,06,4.60
2006,02,15,10,07,4.60
2006,02,15,10,08,4.60
2006,02,15,10,09,4.60
2006,02,15,10,10,4.60
2006,02,15,10,11,4.60
2006,02,15,10,12,4.50
2006,02,15,10,13,4.50
2006,02,15,10,14,4.50
2006,02,15,10,15,4.50
2006,02,15,10,16,4.60
2006,02,15,10,17,4.60
2006,02,15,10,18,4.60
2006,02,15,10,19,4.70
2006,02,15,10,20,4.70
2006,02,15,10,21,4.70
2006,02,15,10,22,4.70
2006,02,15,10,23,4.70
2006,02,15,10,24,4.70
2006,02,15,10,25,4.70
2006,02,15,10,26,4.70
2006,02,15,10,27,4.70
2006,02,15,10,28,4.70
2006,02,15,10,29,4.80
2006,02,15,10,30,4.80
2006,02,15,10,31,4.80
2006,02,15,10,32,4.90
2006,02,15,10,33,4.90
2006,02,15,10,34,4.90
2006,02,15,10,35,4.90
2006,02,15,10,36,5.10
2006,02,15,10,37,5.10
2006,02,15,10,38,5.10
2006,02,15,10,39,5.10
2006,02,15,10,40,5.10
2006,02,15,10,41,5.10
2006,02,15,10,42,5.10
2006,02,15,10,43,5.10
2006,02,15,10,44,5.10
2006,02,15,10,45,5.10
2006,02,15,10,46,5.10
2006,02,15,10,47,5.20
2006,02,15,10,48,5.10
2006,02,15,10,49,5.10
2006,02,15,10,50,5.10
2006,02,15,10,51,5.10
2006,02,15,10,52,5.10
2006,02,15,10,53,5.20
2006,02,15,10,54,5.10
2006,02,15,10,55,5.10
2006,02,15,10,56,5.10
2006,02,15,10,57,5.10
2006,02,15,10,58,5.20
2006,02,15,10,59,5.30
2006,02,15,11,00,5.30
2006,02,15,11,01,5.30
2006,02,15,11,02,5.30
2006,02,15,11,03,5.30
2006,02,15,11,04,5.30
2006,02,15,11,05,5.20
2006,02,15,11,06,5.10
2006,02,15,11,07,5.10
2006,02,15,11,08,5.10
2006,02,15,11,09,5.10
2006,02,15,11,10,5.10
2006,02,15,11,11,5.10
2006,02,15,11,12,5.10
2006,02,15,11,13,5.10
2006,02,15,11,14,5.10
2006,02,15,11,15,5.20
2006,02,15,11,16,5.30
2006,02,15,11,17,5.30
2006,02,15,11,18,5.30
2006,02,15,11,19,5.30
2006,02,15,11,20,5.30
2006,02,15,11,21,5.30
2006,02,15,11,22,5.40
2006,02,15,11,23,5.50
2006,02,15,11,24,5.50
2006,02,15,11,25,5.50
2006,02,15,11,26,5.50
2006,02,15,11,27,5.50
2006,02,15,11,28,5.50
2006,02,15,11,29,5.50
2006,02,15,11,30,5.50
2006,02,15,11,31,5.50
2006,02,15,11,32,5.70
2006,02,15,11,33,5.70
2006,02,15,11,34,5.70
2006,02,15,11,35,5.70
2006,02,15,11,36,5.70
2006,02,15,11,37,5.60
2006,02,15,11,38,5.60
2006,02,15,11,39,5.60
2006,02,15,11,40,5.60
2006,02,15,11,41,5.60
2006,02,15,11,42,5.50
2006,02,15,11,43,5.50
2006,02,15,11,44,5.50
2006,02,15,11,45,5.60
2006,02,15,11,46,5.70
2006,02,15,11,47,5.70
2006,02,15,11,48,5.70
2006,02,15,11,49,5.70
2006,02,15,11,50,5.70
2006,02,15,11,51,5.70
2006,02,15,11,52,5.70
2006,02,15,11,53,5.70
2006,02,15,11,54,5.70
2006,02,15,11,55,5.70
2006,02,15,11,56,5.70
2006,02,15,11,57,5.70
2006,02,15,11,58,5.70
2006,02,15,11,59,5.70
2006,02,15,12,00,5.70
2006,02,15,12,01,5.70
2006,02,15,12,02,5.70
2006,02,15,12,03,5.70
2006,02,15,12,04,5.60
2006,02,15,12,05,5.50
2006,02,15,12,06,5.60
2006,02,15,12,07,5.60
2006,02,15,12,08,5.70
2006,02,15,12,09,5.70
2006,02,15,12,10,5.70
2006,02,15,12,11,5.70
2006,02,15,12,12,5.80
2006,02,15,12,13,5.90
2006,02,15,12,14,5.90
2006,02,15,12,15,5.90
2006,02,15,12,16,5.90
2006,02,15,12,17,5.90
2006,02,15,12,18,5.90
2006,02,15,12,19,5.90
2006,02,15,12,20,5.90
2006,02,15,12,21,6.00
2006,02,15,12,22,6.00
2006,02,15,12,23,6.10
2006,02,15,12,24,6.10
2006,02,15,12,25,6.20
2006,02,15,12,26,6.20
2006,02,15,12,27,6.20
2006,02,15,12,28,6.10
2006,02,15,12,29,6.00
2006,02,15,12,30,6.00
2006,02,15,12,31,6.00
2006,02,15,12,32,6.00
2006,02,15,12,33,6.00
2006,02,15,12,34,6.00
2006,02,15,12,35,6.00
2006,02,15,12,36,6.00
2006,02,15,12,37,6.00
2006,02,15,12,38,5.90
2006,02,15,12,39,5.90
2006,02,15,12,40,5.90
2006,02,15,12,41,5.80
2006,02,15,12,42,5.90
2006,02,15,12,43,5.90
2006,02,15,12,44,5.90
2006,02,15,12,45,6.00
2006,02,15,12,46,6.00
2006,02,15,12,47,6.00
2006,02,15,12,48,6.00
2006,02,15,12,49,5.90
2006,02,15,12,50,5.90
2006,02,15,12,51,5.90
2006,02,15,12,52,5.90
2006,02,15,12,53,5.90
2006,02,15,12,54,5.90
2006,02,15,12,55,6.00
2006,02,15,12,56,6.00
2006,02,15,12,57,6.10
2006,02,15,12,58,6.20
2006,02,15,12,59,6.20
2006,02,15,13,00,6.20
2006,02,15,13,01,6.20
2006,02,15,13,02,6.20
2006,02,15,13,03,6.20
2006,02,15,13,04,6.20
2006,02,15,13,05,6.20
2006,02,15,13,06,6.20
2006,02,15,13,07,6.20
2006,02,15,13,08,6.20
2006,02,15,13,09,6.20
2006,02,15,13,10,6.20
2006,02,15,13,11,6.10
2006,02,15,13,12,6.00
2006,02,15,13,13,6.00
2006,02,15,13,14,6.00
2006,02,15,13,15,6.00
2006,02,15,13,16,6.00
2006,02,15,13,17,6.00
2006,02,15,13,18,6.00
2006,02,15,13,19,6.00
2006,02,15,13,20,5.90
2006,02,15,13,21,5.90
2006,02,15,13,22,5.90
2006,02,15,13,23,6.00
2006,02,15,13,24,6.00
2006,02,15,13,25,6.20
2006,02,15,13,26,6.20
2006,02,15,13,27,6.20
2006,02,15,13,28,6.10
2006,02,15,13,29,6.00
2006,02,15,13,30,6.00
2006,02,15,13,31,6.00
2006,02,15,13,32,6.10
2006,02,15,13,33,6.10
2006,02,15,13,34,6.10
2006,02,15,13,35,6.10
2006,02,15,13,36,6.20
2006,02,15,13,37,6.20
2006,02,15,13,38,6.20
2006,02,15,13,39,6.20
2006,02,15,13,40,6.20
2006,02,15,13,41,6.30
2006,02,15,13,42,6.30
2006,02,15,13,43,6.30
2006,02,15,13,44,6.30
2006,02,15,13,45,6.20
2006,02,15,13,46,6.30
2006,02,15,13,47,6.40
2006,02,15,13,48,6.40
2006,02,15,13,49,6.40
2006,02,15,13,50,6.40
2006,02,15,13,51,6.40
2006,02,15,13,52,6.30
2006,02,15,13,53,6.30
2006,02,15,13,54,6.30
2006,02,15,13,55,6.30
2006,02,15,13,56,6.20
2006,02,15,13,57,6.20
2006,02,15,13,58,6.20
2006,02,15,13,59,6.20
2006,02,15,14,00,6.20
2006,02,15,14,01,6.20
2006,02,15,14,02,6.20
2006,02,15,14,03,6.20
2006,02,15,14,04,6.20
2006,02,15,14,05,6.20
2006,02,15,14,06,6.30
2006,02,15,14,07,6.30
2006,02,15,14,08,6.40
2006,02,15,14,09,6.30
2006,02,15,14,10,6.30
2006,02,15,14,11,6.20
2006,02,15,14,12,6.20
2006,02,15,14,13,6.30
2006,02,15,14,14,6.30
2006,02,15,14,15,6.20
2006,02,15,14,16,6.20
2006,02,15,14,17,6.10
2006,02,15,14,18,6.10
2006,02,15,14,19,6.10
2006,02,15,14,20,6.10
2006,02,15,14,21,6.10
2006,02,15,14,22,6.10
2006,02,15,14,23,6.10
2006,02,15,14,24,6.20
2006,02,15,14,25,6.20
2006,02,15,14,26,6.20
2006,02,15,14,27,6.20
2006,02,15,14,28,6.20
2006,02,15,14,29,6.20
2006,02,15,14,30,6.10
2006,02,15,14,31,6.00
2006,02,15,14,32,6.00
2006,02,15,14,33,5.90
2006,02,15,14,34,5.90
2006,02,15,14,35,5.90
2006,02,15,14,36,5.90
2006,02,15,14,37,5.90
2006,02,15,14,38,5.90
2006,02,15,14,39,6.20
2006,02,15,14,40,6.20
2006,02,15,14,41,6.20
2006,02,15,14,42,6.20
2006,02,15,14,43,6.10
2006,02,15,14,44,6.10
2006,02,15,14,45,6.10
2006,02,15,14,46,6.10
2006,02,15,14,47,6.10
2006,02,15,14,48,6.10
2006,02,15,14,49,6.10
2006,02,15,14,50,6.10
2006,02,15,14,51,6.10
2006,02,15,14,52,6.00
2006,02,15,14,53,6.00
2006,02,15,14,54,6.00
2006,02,15,14,55,6.00
2006,02,15,14,56,6.00
2006,02,15,14,57,6.00
2006,02,15,14,58,6.00
2006,02,15,14,59,6.00
2006,02,15,15,00,6.10
2006,02,15,15,01,6.10
2006,02,15,15,02,6.20
2006,02,15,15,03,6.20
2006,02,15,15,04,6.20
2006,02,15,15,05,6.20
2006,02,15,15,06,6.20
2006,02,15,15,07,6.20
2006,02,15,15,08,6.20
2006,02,15,15,09,6.30
2006,02,15,15,10,6.30
2006,02,15,15,11,6.30
2006,02,15,15,12,6.30
2006,02,15,15,13,6.30
2006,02,15,15,14,6.40
2006,02,15,15,15,6.40
2006,02,15,15,16,6.40
2006,02,15,15,17,6.40
2006,02,15,15,18,6.40
2006,02,15,15,19,6.40
2006,02,15,15,20,6.40
2006,02,15,15,21,6.30
2006,02,15,15,22,6.30
2006,02,15,15,23,6.30
2006,02,15,15,24,6.30
2006,02,15,15,25,6.30
2006,02,15,15,26,6.30
2006,02,15,15,27,6.30
2006,02,15,15,28,6.30
2006,02,15,15,29,6.30
2006,02,15,15,30,6.30
2006,02,15,15,31,6.30
2006,02,15,15,32,6.30
2006,02,15,15,33,6.30
2006,02,15,15,34,6.30
2006,02,15,15,35,6.30
2006,02,15,15,36,6.30
2006,02,15,15,37,6.30
2006,02,15,15,38,6.30
2006,02,15,15,39,6.30
2006,02,15,15,40,6.30
2006,02,15,15,41,6.40
2006,02,15,15,42,6.40
2006,02,15,15,43,6.40
2006,02,15,15,44,6.40
2006,02,15,15,45,6.40
2006,02,15,15,46,6.40
2006,02,15,15,47,6.30
2006,02,15,15,48,6.30
2006,02,15,15,49,6.30
2006,02,15,15,50,6.30
2006,02,15,15,51,6.30
2006,02,15,15,52,6.30
2006,02,15,15,53,6.30
2006,02,15,15,54,6.30
2006,02,15,15,55,6.30
2006,02,15,15,56,6.30
2006,02,15,15,57,6.20
2006,02,15,15,58,6.20
2006,02,15,15,59,6.20
2006,02,15,16,00,6.20
2006,02,15,16,01,6.20
2006,02,15,16,02,6.30
2006,02,15,16,03,6.30
2006,02,15,16,04,6.30
2006,02,15,16,05,6.40
2006,02,15,16,06,6.40
2006,02,15,16,07,6.40
2006,02,15,16,08,6.40
2006,02,15,16,09,6.40
2006,02,15,16,10,6.40
2006,02,15,16,11,6.40
2006,02,15,16,12,6.30
2006,02,15,16,13,6.30
2006,02,15,16,14,6.30
2006,02,15,16,15,6.20
2006,02,15,16,16,6.20
2006,02,15,16,17,6.30
2006,02,15,16,18,6.30
2006,02,15,16,19,6.30
2006,02,15,16,20,6.30
2006,02,15,16,21,6.30
2006,02,15,16,22,6.30
2006,02,15,16,23,6.30
2006,02,15,16,24,6.30
2006,02,15,16,25,6.30
2006,02,15,16,26,6.30
2006,02,15,16,27,6.40
2006,02,15,16,28,6.40
2006,02,15,16,29,6.30
2006,02,15,16,30,6.30
2006,02,15,16,31,6.30
2006,02,15,16,32,6.30
2006,02,15,16,33,6.20
2006,02,15,16,34,6.20
2006,02,15,16,35,6.20
2006,02,15,16,36,6.20
2006,02,15,16,37,6.20
2006,02,15,16,38,6.20
2006,02,15,16,39,6.20
2006,02,15,16,40,6.20
2006,02,15,16,41,6.20
2006,02,15,16,42,6.20
2006,02,15,16,43,6.20
2006,02,15,16,44,6.10
2006,02,15,16,45,6.10
2006,02,15,16,46,6.10
2006,02,15,16,47,6.10
2006,02,15,16,48,6.10
2006,02,15,16,49,6.10
2006,02,15,16,50,6.10
2006,02,15,16,51,6.00
2006,02,15,16,52,6.00
2006,02,15,16,53,6.00
2006,02,15,16,54,6.00
2006,02,15,16,55,6.00
2006,02,15,16,56,6.00
2006,02,15,16,57,6.00
2006,02,15,16,58,6.00
2006,02,15,16,59,6.00
2006,02,15,17,00,6.00
2006,02,15,17,01,6.00
2006,02,15,17,02,6.00
2006,02,15,17,03,6.00
2006,02,15,17,04,6.00
2006,02,15,17,05,6.00
2006,02,15,17,06,6.00
2006,02,15,17,07,6.00
2006,02,15,17,08,6.00
2006,02,15,17,09,6.00
2006,02,15,17,10,6.00
2006,02,15,18,18,4.60
2006,02,15,18,19,4.60
2006,02,15,18,20,4.60
2006,02,15,18,21,4.60
2006,02,15,18,22,4.60
2006,02,15,18,23,4.60
2006,02,15,18,24,4.50
2006,02,15,18,25,4.50
2006,02,15,18,26,4.50
2006,02,15,18,27,4.50
2006,02,15,18,28,4.50
2006,02,15,18,29,4.40
2006,02,15,18,30,4.40
2006,02,15,18,31,4.40
2006,02,15,18,32,4.30
2006,02,15,18,33,4.30
2006,02,15,18,34,4.30
2006,02,15,18,35,4.30
2006,02,15,18,36,4.30
2006,02,15,18,37,4.30
2006,02,15,18,38,4.30
2006,02,15,18,39,4.30
2006,02,15,18,40,4.30
2006,02,15,18,41,4.30
2006,02,15,18,42,4.30
2006,02,15,18,43,4.30
2006,02,15,18,44,4.30
2006,02,15,18,45,4.10
2006,02,15,18,46,4.10
2006,02,15,18,47,4.10
2006,02,15,18,48,4.10
2006,02,15,18,49,4.10
2006,02,15,18,50,4.00
2006,02,15,18,51,4.00
2006,02,15,18,52,3.90
2006,02,15,18,53,3.90
2006,02,15,18,54,3.90
2006,02,15,18,55,3.80
2006,02,15,18,56,3.80
2006,02,15,18,57,3.80
2006,02,15,18,58,3.80
2006,02,15,18,59,3.80
2006,02,15,19,00,3.80
2006,02,15,19,01,3.80
2006,02,15,19,02,3.80
2006,02,15,19,03,3.80
2006,02,15,19,04,3.80
2006,02,15,19,05,3.80
2006,02,15,19,06,3.80
2006,02,15,19,07,3.80
2006,02,15,19,08,3.80
2006,02,15,19,09,3.80
2006,02,15,19,10,3.80
2006,02,15,19,11,3.90
2006,02,15,19,12,3.90
2006,02,15,19,13,3.90
2006,02,15,19,14,3.90
2006,02,15,19,15,3.90
2006,02,15,19,16,3.90
2006,02,15,19,17,3.90
2006,02,15,19,18,3.90
2006,02,15,19,19,3.90
2006,02,15,19,20,3.90
2006,02,15,19,21,3.80
2006,02,15,19,22,3.80
2006,02,15,19,23,3.80
2006,02,15,19,24,3.80
2006,02,15,19,25,3.80
2006,02,15,19,26,3.80
2006,02,15,19,27,3.80
2006,02,15,19,28,3.80
2006,02,15,19,29,3.80
2006,02,15,19,30,3.80
2006,02,15,19,31,3.80
2006,02,15,19,32,3.80
2006,02,15,19,33,3.80
2006,02,15,19,34,3.80
2006,02,15,19,35,3.80
2006,02,15,19,36,3.70
2006,02,15,19,37,3.60
2006,02,15,19,38,3.50
2006,02,15,19,39,3.40
2006,02,15,19,40,3.30
2006,02,15,19,41,3.30
2006,02,15,19,42,3.20
2006,02,15,19,43,3.20
2006,02,15,19,44,3.20
2006,02,15,19,45,3.20
2006,02,15,19,46,3.10
2006,02,15,19,47,3.10
2006,02,15,19,48,3.10
2006,02,15,19,49,3.10
2006,02,15,19,50,3.20
2006,02,15,19,51,3.20
2006,02,15,19,52,3.10
2006,02,15,19,53,3.10
2006,02,15,19,54,3.10
2006,02,15,19,55,3.10
2006,02,15,19,56,3.00
2006,02,15,19,57,2.90
2006,02,15,19,58,2.90
2006,02,15,19,59,2.80
2006,02,15,20,00,2.80
2006,02,15,20,01,2.80
2006,02,15,20,02,2.70
2006,02,15,20,03,2.70
2006,02,15,20,04,2.70
2006,02,15,20,05,2.70
2006,02,15,20,06,2.70
2006,02,15,20,07,2.70
2006,02,15,20,08,2.70
2006,02,15,20,09,2.70
2006,02,15,20,10,2.70
2006,02,15,20,11,2.70
2006,02,15,20,12,2.70
2006,02,15,20,13,2.70
2006,02,15,20,14,2.70
2006,02,15,20,15,2.70
2006,02,15,20,16,2.70
2006,02,15,20,17,2.70
2006,02,15,20,18,2.70
2006,02,15,20,19,2.70
2006,02,15,20,20,2.70
2006,02,15,20,21,2.70
2006,02,15,20,22,2.70
2006,02,15,20,23,2.70
2006,02,15,20,24,2.70
2006,02,15,20,25,2.70
2006,02,15,20,26,2.60
2006,02,15,20,27,2.50
2006,02,15,20,28,2.50
2006,02,15,20,29,2.40
2006,02,15,20,30,2.40
2006,02,15,20,31,2.30
2006,02,15,20,32,2.20
2006,02,15,20,33,2.20
2006,02,15,20,34,2.10
2006,02,15,20,35,2.00
2006,02,15,20,36,2.00
2006,02,15,20,37,2.00
2006,02,15,20,38,2.00
2006,02,15,20,39,2.00
2006,02,15,20,40,2.00
2006,02,15,20,41,2.00
2006,02,15,20,42,2.00
2006,02,15,20,43,2.00
2006,02,15,20,44,2.00
2006,02,15,20,45,2.00
2006,02,15,20,46,2.00
2006,02,15,20,47,2.00
2006,02,15,20,48,2.00
2006,02,15,20,49,2.00
2006,02,15,20,50,2.00
2006,02,15,20,51,2.00
2006,02,15,20,52,2.00